Location: Unspecified
(0.0000°N, 0.0000°E)
Time: 20:31:03
(UTC+00:00)

Vanguard 1 - Pass Details

Date: 23 June 2025
Orbit: 649 x 3822 km, 34.2° (Epoch: 12 July)

Event Time Altitude Azimuth Distance (km) Brightness Sun altitude
Rises 18:59:15 0° 282° (WNW) 7,760 16.4 -13.0°
Reaches altitude 10° 19:06:13 10° 272° (W) 6,403 15.3 -14.6°
Maximum altitude 19:21:12 28° 220° (SW) 3,901 13.2 -18.0°
Drops below altitude 10° 19:31:01 10° 165° (SSE) 4,122 12.9 -20.2°
Enters shadow 19:31:28 - 163° (SSE) 4,189 12.9 -20.3°
